DW2728 Weather Reports


time (UTC)temp
C
wind
direction
speed
KPH
gust
KPH
rain 1hr
cm
rain 24hr
cm
rain mn
cm
humidity
%
barometer
mb
20260507143824 12 272 8.0 16.1 0.00 0.10 0.00 74 1015.6
20260507142803 11 268 11.3 17.7 0.00 0.10 0.00 74 1015.6
20260507141802 10 268 11.3 16.1 0.00 0.13 0.00 77 1015.8
20260507140803 10 271 9.7 17.7 0.00 0.15 0.00 79 1015.9
20260507135804 8 271 8.0 14.5 0.00 0.18 0.00 82 1015.9
20260507134824 8 276 9.7 16.1 0.00 0.18 0.00 83 1015.8
20260507133803 7 276 8.0 12.9 0.00 0.20 0.00 86 1015.9
20260507132802 6 270 8.0 14.5 0.00 0.20 0.00 88 1016.0
20260507131803 5 263 6.4 11.3 0.00 0.23 0.00 90 1016.0
20260507130803 5 271 8.0 12.9 0.00 0.28 0.00 92 1016.2
20260507125802 4 263 6.4 9.7 0.00 0.30 0.00 93 1016.1
20260507124803 3 258 6.4 11.3 0.00 0.30 0.00 93 1016.1
20260507123824 3 264 6.4 11.3 0.00 0.33 0.00 95 1016.2
20260507122803 2 266 6.4 11.3 0.00 0.36 0.00 95 1016.1
20260507121803 2 269 8.0 11.3 0.00 0.38 0.00 95 1016.5
20260507120803 1 271 6.4 9.7 0.00 0.41 0.00 95 1016.7
20260507115803 1 267 4.8 8.0 0.00 0.41 0.00 94 1016.7
20260507114802 1 263 4.8 8.0 0.00 0.43 0.00 95 1016.7
20260507113803 1 274 4.8 9.7 0.00 0.43 0.00 94 1016.8
20260507112803 1 255 4.8 6.4 0.00 0.46 0.00 94 1016.9
20260507111803 1 229 3.2 6.4 0.00 0.46 0.00 94 1016.9
20260507110802 1 240 3.2 4.8 0.00 0.48 0.00 94 1017.1
20260507104803 1 224 3.2 6.4 0.00 0.53 0.00 94 1017.3
20260507103803 1 245 3.2 4.8 0.00 0.56 0.00 94 1017.5
20260507102802 1 260 3.2 4.8 0.00 0.58 0.00 94 1017.6
20260507101803 1 255 3.2 4.8 0.00 0.61 0.00 94 1017.7
20260507100804 1 251 3.2 6.4 0.00 0.64 0.00 94 1017.7
20260507095825 1 269 3.2 6.4 0.00 0.64 0.00 94 1017.8
20260507094804 1 261 3.2 6.4 0.00 0.66 0.00 94 1017.9
20260507093804 1 270 4.8 8.0 0.00 0.66 0.00 94 1018.1
20260507092804 1 270 4.8 9.7 0.00 0.69 0.00 94 1018.1
20260507090804 1 265 6.4 8.0 0.00 0.71 0.00 93 1018.1
20260507085804 1 262 6.4 9.7 0.00 0.71 0.00 94 1018.1
20260507084804 1 261 6.4 9.7 0.00 0.71 0.00 94 1018.2
20260507083804 1 263 8.0 9.7 0.00 0.74 0.00 94 1018.0
20260507082804 1 267 6.4 9.7 0.00 0.74 0.00 94 1018.4
20260507081804 1 265 6.4 11.3 0.00 0.74 0.00 94 1018.5
20260507080804 1 268 6.4 11.3 0.00 0.74 0.00 93 1018.7
20260507075804 1 267 6.4 9.7 0.00 0.74 0.00 93 1018.8
20260507074804 1 271 6.4 9.7 0.00 0.74 0.00 94 1019.0
20260507073804 1 268 6.4 9.7 0.00 0.76 0.00 93 1019.0
20260507072804 2 266 6.4 8.0 0.00 0.76 0.00 93 1019.2
20260507071803 2 265 6.4 9.7 0.00 0.79 0.00 93 1019.4
20260507070804 2 262 6.4 9.7 0.00 0.79 0.00 93 1019.5
20260507065804 2 260 6.4 8.0 0.00 0.81 0.00 93 1019.5
20260507064804 2 260 6.4 8.0 0.00 0.81 0.00 93 1019.7
20260507063803 2 258 4.8 8.0 0.00 0.81 0.00 92 1019.7
20260507062804 2 264 4.8 8.0 0.00 0.81 0.00 92 1019.9
20260507061825 2 263 4.8 6.4 0.00 0.81 0.00 92 1019.9
20260507060804 2 261 4.8 8.0 0.00 0.84 0.00 92 1020.0
20260507055804 2 264 6.4 8.0 0.00 0.84 0.00 92 1020.2
20260507054824 2 262 6.4 9.7 0.00 0.84 0.00 92 1020.1
20260507053804 2 264 6.4 9.7 0.00 0.84 0.00 92 1020.2
20260507052825 2 258 6.4 8.0 0.00 0.89 0.00 92 1020.2
20260507051804 2 265 4.8 8.0 0.00 0.91 0.00 92 1020.4
20260507050804 3 263 4.8 6.4 0.00 0.94 0.00 92 1020.3
20260507045804 3 264 4.8 6.4 0.00 0.64 0.00 93 1020.4
20260507044804 3 256 6.4 8.0 0.00 0.66 0.00 93 1020.7
20260507043803 3 258 4.8 9.7 0.00 0.71 0.00 93 1020.6
20260507042804 3 262 4.8 9.7 0.00 0.76 0.00 93 1020.8
20260507041824 3 260 6.4 8.0 0.00 1.40 1.24 93 1020.8
20260507040804 3 255 4.8 6.4 0.00 1.42 1.24 93 1020.7
20260507035803 3 262 4.8 6.4 0.00 1.50 1.24 93 1020.7
20260507034804 3 261 4.8 6.4 0.00 1.57 1.24 93 1020.7
20260507033824 2 262 4.8 6.4 0.00 1.63 1.24 92 1020.8
20260507032825 3 264 3.2 4.8 0.00 1.68 1.24 91 1020.8
20260507031803 3 265 3.2 4.8 0.00 1.70 1.24 91 1020.7
20260507030804 3 270 3.2 6.4 0.00 1.75 1.24 91 1020.8
20260507025804 3 272 1.6 6.4 0.00 1.75 1.24 90 1020.7
20260507024803 3 266 3.2 3.2 0.00 1.75 1.24 90 1020.6
20260507023825 4 266 1.6 3.2 0.00 1.75 1.24 89 1020.3
20260507022803 4 266 1.6 3.2 0.00 1.75 1.24 89 1020.2
20260507021803 5 262 1.6 3.2 0.00 1.75 1.24 88 1020.0
20260507020804 5 281 1.6 3.2 0.00 1.75 1.24 89 1020.0
20260507015824 5 295 1.6 3.2 0.00 1.75 1.24 88 1019.9
20260507014804 6 285 0.0 3.2 0.00 1.75 1.24 88 1019.9
20260507013803 6 286 0.0 3.2 0.00 1.75 1.24 88 1019.8
20260507012825 6 287 1.6 3.2 0.00 1.75 1.24 88 1019.8
20260507011803 6 268 1.6 3.2 0.00 1.75 1.24 88 1019.8
20260507010804 6 269 1.6 3.2 0.00 1.75 1.24 88 1019.7
20260507005803 6 269 0.0 0.0 0.00 1.75 1.24 88 1019.6
20260507004804 6 269 0.0 3.2 0.00 1.75 1.24 87 1019.7
20260507003803 7 268 1.6 6.4 0.00 1.75 1.24 86 1019.7
20260507002804 7 274 1.6 6.4 0.00 1.75 1.24 86 1019.7
20260507001803 7 283 3.2 6.4 0.00 1.75 1.24 87 1019.8
20260507000804 7 268 1.6 6.4 0.00 1.75 1.24 87 1019.6
20260506235803 7 282 1.6 8.0 0.03 1.75 1.24 88 1019.8
20260506234804 7 274 4.8 8.0 0.03 1.75 1.24 87 1020.3
20260506233803 7 289 3.2 6.4 0.03 1.75 1.24 88 1020.2
20260506232804 7 276 3.2 6.4 0.03 1.75 1.24 88 1020.1
20260506231803 7 293 1.6 6.4 0.00 1.73 1.22 88 1020.0
20260506230804 7 274 3.2 6.4 0.00 1.75 1.22 87 1020.0
20260506225803 7 268 1.6 6.4 0.03 1.75 1.22 87 1019.9
20260506224804 7 278 3.2 6.4 0.03 1.78 1.22 87 1019.9
20260506223803 7 265 1.6 4.8 0.03 1.78 1.22 87 1019.9
20260506222804 7 255 1.6 3.2 0.03 1.80 1.22 87 1019.8
20260506221803 7 254 1.6 4.8 0.03 1.85 1.22 87 1019.7
20260506220804 7 233 1.6 8.0 0.03 1.88 1.22 87 1019.8
20260506215803 7 221 3.2 9.7 0.00 1.91 1.19 87 1019.8
20260506214803 7 211 6.4 9.7 0.00 1.93 1.19 88 1019.9
20260506213825 7 190 4.8 9.7 0.00 1.96 1.19 88 1019.9
20260506212803 7 168 1.6 8.0 0.00 1.98 1.19 87 1019.9
20260506211804 7 158 6.4 9.7 0.00 1.98 1.19 86 1019.9
20260506210803 7 183 6.4 11.3 0.00 1.98 1.19 86 1020.0
20260506205804 7 196 4.8 8.0 0.00 1.98 1.19 86 1020.0
20260506204803 7 212 1.6 8.0 0.00 1.98 1.19 88 1019.9
20260506203804 7 214 3.2 9.7 0.00 1.98 1.19 87 1020.0
20260506202803 7 160 4.8 11.3 0.00 1.98 1.19 88 1020.0
20260506201825 7 163 6.4 12.9 0.00 1.98 1.19 88 1020.2
20260506200804 7 136 6.4 12.9 0.00 1.98 1.19 88 1020.3
20260506195803 7 162 3.2 9.7 0.00 1.98 1.19 90 1020.2
20260506194803 7 135 4.8 11.3 0.00 1.98 1.19 90 1020.2
20260506193804 7 152 4.8 9.7 0.00 1.98 1.19 91 1020.2
20260506192803 7 106 6.4 11.3 0.00 1.98 1.19 92 1020.3
20260506191804 7 123 8.0 11.3 0.00 1.98 1.19 93 1020.3
20260506190803 6 95 6.4 12.9 0.00 1.98 1.19 94 1020.4
20260506185804 6 109 8.0 12.9 0.00 1.98 1.19 95 1020.4
20260506184803 6 79 6.4 9.7 0.00 1.98 1.19 96 1020.7
20260506183804 6 13 1.6 11.3 0.00 1.98 1.19 96 1020.8
20260506182803 6 88 4.8 9.7 0.00 1.98 1.19 96 1021.0
20260506181804 6 81 6.4 12.9 0.00 1.98 1.19 96 1021.0
20260506180803 5 32 3.2 11.3 0.00 1.98 1.19 97 1021.0
20260506175803 5 76 4.8 9.7 0.00 1.98 1.19 97 1021.1
20260506174803 5 52 4.8 11.3 0.00 1.98 1.19 97 1021.2
20260506173804 4 32 6.4 9.7 0.00 1.98 1.19 97 1021.1
20260506172803 4 56 6.4 9.7 0.00 1.98 1.19 97 1021.1
20260506171825 3 58 6.4 9.7 0.00 1.98 1.19 97 1021.1
20260506170803 3 46 6.4 9.7 0.00 1.98 1.19 97 1020.9
20260506165804 3 31 4.8 9.7 0.08 1.98 1.19 97 1021.0
20260506164804 3 59 4.8 9.7 0.05 1.96 1.17 97 1021.1
20260506163803 2 48 6.4 8.0 0.05 1.96 1.17 97 1020.9
20260506162803 2 41 4.8 9.7 0.05 1.96 1.17 97 1020.8
20260506161804 2 31 6.4 9.7 0.03 1.93 1.14 97 1020.7
20260506160803 2 20 4.8 8.0 0.00 1.91 1.12 97 1020.6
20260506155804 2 12 4.8 9.7 0.08 1.91 1.12 97 1020.6
20260506154803 2 7 8.0 11.3 0.05 1.88 1.09 96 1020.6
20260506153804 2 5 4.8 9.7 0.05 1.88 1.09 97 1020.5
20260506152803 2 348 3.2 6.4 0.05 1.88 1.09 96 1020.5
20260506151804 2 349 0.0 6.4 0.05 1.88 1.09 96 1020.5
20260506150803 2 138 0.0 3.2 0.03 1.85 1.07 96 1020.6
20260506145803 2 138 0.0 3.2 0.10 1.83 1.04 97 1020.6
20260506144803 2 138 0.0 1.6 0.08 1.80 1.02 97 1020.6